CW0213 Weather Reports


time (UTC)temp
C
wind
direction
speed
KPH
gust
KPH
rain 1hr
cm
rain 24hr
cm
rain mn
cm
humidity
%
barometer
mb
20260506123012 10 184 8.0 14.5 0.00 0.00 0.00 95 1014.1
20260506121510 10 208 6.4 14.5 0.00 0.00 0.00 95 1014.2
20260506120012 10 185 8.0 22.5 0.00 0.00 0.00 95 1014.1
20260506114506 10 165 8.0 19.3 0.00 0.00 0.00 96 1013.9
20260506113005 10 167 12.9 22.5 0.00 0.00 0.00 96 1013.7
20260506111503 10 192 6.4 22.5 0.00 0.00 0.00 96 1013.6
20260506110004 10 159 8.0 16.1 0.00 0.00 0.00 96 1013.6
20260506104609 10 192 11.3 25.7 0.00 0.00 0.00 96 1013.5
20260506103105 10 130 9.7 20.9 0.00 0.00 0.00 95 1013.1
20260506101618 10 188 11.3 19.3 0.00 0.00 0.00 95 1013.1
20260506100053 10 155 9.7 20.9 0.00 0.00 0.00 95 1012.9
20260506094556 10 164 12.9 27.4 0.00 0.00 0.00 95 1012.7
20260506093055 10 150 11.3 20.9 0.00 0.00 0.00 95 1012.7
20260506091548 10 184 12.9 24.1 0.00 0.00 0.00 95 1012.5
20260506090059 10 157 12.9 24.1 0.00 0.00 0.00 94 1012.6
20260506084551 10 153 9.7 20.9 0.00 0.00 0.00 94 1012.5
20260506083043 10 186 8.0 19.3 0.00 0.00 0.00 94 1012.5
20260506081543 10 159 11.3 20.9 0.00 0.00 0.00 94 1012.4
20260506073035 11 210 9.7 27.4 0.00 0.00 0.00 93 1011.9
20260506071532 11 182 12.9 29.0 0.00 0.00 0.00 92 1011.9
20260506061528 11 146 11.3 27.4 0.00 0.00 0.00 91 1011.6
20260506044525 12 207 8.0 20.9 0.00 0.00 0.00 89 1011.4
20260506043024 12 178 9.7 16.1 0.00 0.00 0.00 88 1011.1
20260506041535 12 196 9.7 16.1 0.00 0.00 0.00 88 1011.0
20260506040023 12 157 9.7 16.1 0.00 0.00 0.00 88 1010.8
20260506034533 13 209 9.7 17.7 0.00 0.00 0.00 87 1010.6
20260506033023 13 182 8.0 14.5 0.00 0.00 0.00 86 1010.5
20260506031522 14 215 4.8 16.1 0.00 0.00 0.00 85 1010.4
20260506030021 15 215 3.2 16.1 0.00 0.00 0.00 82 1010.3
20260506024520 15 214 4.8 16.1 0.00 0.00 0.00 81 1010.4
20260506023020 15 191 8.0 19.3 0.00 0.00 0.00 81 1010.2
20260506021520 15 222 8.0 17.7 0.00 0.00 0.00 80 1010.4
20260506020021 15 208 8.0 17.7 0.00 0.00 0.00 80 1010.4
20260506014522 15 188 9.7 20.9 0.00 0.00 0.00 79 1010.5
20260506013035 16 57 8.0 17.7 0.00 0.00 0.00 79 1010.5
20260506011524 16 184 11.3 16.1 0.00 0.00 0.00 78 1010.5
20260506010022 16 213 8.0 16.1 0.00 0.00 0.00 79 1010.5
20260506004518 16 197 9.7 19.3 0.00 0.00 0.00 78 1010.6
20260506003016 16 215 8.0 17.7 0.00 0.00 0.00 79 1010.6
20260506001517 16 192 11.3 20.9 0.00 0.00 0.00 77 1010.7
20260506000016 16 236 12.9 22.5 0.00 0.00 0.00 78 1010.9
20260505234516 16 232 9.7 22.5 0.00 0.00 0.00 78 1010.9
20260505233024 16 250 9.7 20.9 0.00 0.00 0.00 79 1010.9
20260505231514 17 246 11.3 24.1 0.00 0.00 0.00 78 1011.2
20260505230013 16 167 8.0 25.7 0.00 0.00 0.00 79 1011.4
20260505224513 16 189 9.7 22.5 0.00 0.00 0.00 80 1011.5
20260505223011 16 192 9.7 20.9 0.00 0.00 0.00 79 1011.6
20260505221511 16 195 11.3 22.5 0.00 0.00 0.00 80 1011.7
20260505220027 16 258 9.7 22.5 0.00 0.00 0.00 80 1011.8
20260505214559 16 249 11.3 20.9 0.00 0.00 0.00 81 1011.7
20260505213055 16 228 9.7 20.9 0.00 0.00 0.00 81 1011.9
20260505211602 16 222 6.4 19.3 0.00 0.00 0.00 82 1012.0
20260505210101 15 229 12.9 20.9 0.00 0.00 0.00 82 1012.1
20260505204551 16 236 11.3 22.5 0.00 0.00 0.00 82 1012.1
20260505203055 15 196 9.7 22.5 0.00 0.00 0.00 84 1012.0
20260505201550 15 182 6.4 22.5 0.00 0.00 0.00 83 1012.2
20260505200050 15 236 8.0 19.3 0.00 0.00 0.00 84 1012.1
20260505194547 14 238 12.9 27.4 0.00 0.00 0.00 84 1012.2
20260505193058 15 182 9.7 24.1 0.00 0.00 0.00 85 1012.1
20260505191546 15 236 11.3 25.7 0.00 0.00 0.00 84 1012.2
20260505190044 14 204 11.3 19.3 0.00 0.00 0.00 85 1012.1
20260505184541 14 173 16.1 24.1 0.00 0.00 0.00 85 1012.1
20260505183033 13 184 11.3 27.4 0.00 0.00 0.00 87 1012.1
20260505181525 13 242 11.3 20.9 0.00 0.00 0.00 88 1012.1
20260505180022 13 253 12.9 19.3 0.00 0.00 0.00 89 1011.9
20260505174519 13 169 9.7 25.7 0.00 0.00 0.00 90 1011.9
20260505173017 13 208 11.3 20.9 0.00 0.00 0.00 91 1011.9
20260505171516 12 182 8.0 24.1 0.00 0.00 0.00 91 1011.9
20260505170114 12 213 9.7 17.7 0.00 0.00 0.00 93 1011.9
20260505164549 12 158 9.7 25.7 0.00 0.00 0.00 93 1011.8
20260505163045 11 146 12.9 20.9 0.00 0.00 0.00 94 1011.7
20260505161528 11 206 11.3 20.9 0.00 0.00 0.00 94 1011.7
20260505160108 11 200 9.7 22.5 0.00 0.00 0.00 95 1011.7
20260505153022 11 194 8.0 22.5 0.00 0.00 0.00 95 1011.7
20260505151518 11 189 12.9 24.1 0.00 0.00 0.00 95 1011.5
20260505130111 10 186 11.3 25.7 0.00 0.00 0.00 95 1009.9
20260505124553 10 161 11.3 30.6 0.00 0.00 0.00 94 1009.8